When you browse on this site, cookies collect data to enhance your experience and personalize the content and advertising you see.
Visit our Privacy Policy to learn more. By continuing to use the site, you agree to this use of cookies and data.

Hourly Weather Klagenfurt

Today, 13 August, Thursday

Time Temperature Precipitation Wind Pressure Humidity
00:00 +16°C° 0 mm 0 mps 692 mmHg 94%
01:00 +16°C° 0 mm 0 mps 692 mmHg 94%
02:00 +15°C° 0 mm 0 mps 692 mmHg 94%
03:00 +15°C° 0 mm 0 mps 691 mmHg 95%
04:00 +15°C° 0 mm 0 mps 691 mmHg 95%
05:00 +16°C° 0 mm 0 mps 691 mmHg 94%
06:00 +17°C° 0 mm 0 mps 692 mmHg 93%
07:00 +18°C° 0 mm 0 mps 692 mmHg 92%
08:00 +20°C° 0 mm 0 mps 692 mmHg 83%
09:00 +22°C° 0 mm 0 mps 692 mmHg 74%
10:00 +24°C° 0 mm 0 mps 692 mmHg 64%
11:00 +27°C° 0.2 mm 1 mps 692 mmHg 63%
12:00 +27°C° 0.2 mm 1 mps 692 mmHg 63%
13:00 +28°C° 0.2 mm 1 mps 692 mmHg 62%
14:00 +27°C° 0.8 mm 1 mps 692 mmHg 65%
15:00 +27°C° 0.8 mm 1 mps 691 mmHg 67%
16:00 +26°C° 0.8 mm 2 mps 691 mmHg 69%
17:00 +25°C° 0.6 mm 1 mps 691 mmHg 76%
18:00 +23°C° 0.6 mm 1 mps 690 mmHg 83%
19:00 +21°C° 0.6 mm 1 mps 690 mmHg 90%
20:00 +20°C° 0.3 mm 1 mps 690 mmHg 91%
21:00 +20°C° 0.3 mm 1 mps 690 mmHg 92%
22:00 +19°C° 0.3 mm 1 mps 690 mmHg 93%
23:00 +19°C° 0.2 mm 1 mps 690 mmHg 93%

Tomorrow, 14 August, Friday

Time Temperature Precipitation Wind Pressure Humidity
00:00 +18°C° 0.2 mm 1 mps 690 mmHg 93%
01:00 +18°C° 0.2 mm 1 mps 690 mmHg 94%
02:00 +18°C° 0.1 mm 1 mps 690 mmHg 94%
03:00 +16°C° 0.1 mm 1 mps 689 mmHg 94%
04:00 +16°C° 0.1 mm 1 mps 689 mmHg 94%
05:00 +16°C° 0.1 mm 0 mps 689 mmHg 93%
06:00 +17°C° 0.1 mm 0 mps 690 mmHg 91%
07:00 +18°C° 0.1 mm 0 mps 690 mmHg 90%
08:00 +19°C° 0.8 mm 0 mps 690 mmHg 86%
09:00 +23°C° 0.8 mm 1 mps 690 mmHg 82%
10:00 +24°C° 0.8 mm 1 mps 691 mmHg 79%
11:00 +25°C° 1.9 mm 1 mps 690 mmHg 76%
12:00 +23°C° 1.9 mm 0 mps 690 mmHg 74%
13:00 +24°C° 1.9 mm 0 mps 690 mmHg 71%
14:00 +23°C° 1 mm 0 mps 690 mmHg 71%
15:00 +25°C° 1 mm 1 mps 690 mmHg 72%
16:00 +25°C° 1 mm 1 mps 690 mmHg 72%
17:00 +23°C° 0.6 mm 1 mps 689 mmHg 78%
18:00 +21°C° 0.6 mm 1 mps 689 mmHg 83%
19:00 +20°C° 0.6 mm 1 mps 689 mmHg 89%
20:00 +19°C° 0.3 mm 1 mps 689 mmHg 90%
21:00 +18°C° 0.3 mm 1 mps 689 mmHg 91%
22:00 +16°C° 0.3 mm 1 mps 689 mmHg 92%
23:00 +16°C° 0.2 mm 1 mps 689 mmHg 92%

Day after tomorrow, 15 August, Saturday

Time Temperature Precipitation Wind Pressure Humidity
00:00 +16°C° 0.2 mm 1 mps 689 mmHg 92%
01:00 +16°C° 0.2 mm 1 mps 689 mmHg 92%
02:00 +16°C° 0.2 mm 1 mps 689 mmHg 92%
03:00 +16°C° 0.2 mm 1 mps 689 mmHg 92%
04:00 +15°C° 0.2 mm 1 mps 689 mmHg 92%
05:00 +16°C° 0.1 mm 1 mps 689 mmHg 91%
06:00 +18°C° 0.1 mm 1 mps 689 mmHg 91%
07:00 +18°C° 0.1 mm 1 mps 689 mmHg 90%
08:00 +19°C° 0.1 mm 1 mps 690 mmHg 85%
09:00 +20°C° 0.1 mm 1 mps 690 mmHg 81%
10:00 +22°C° 0.1 mm 1 mps 691 mmHg 77%
11:00 +23°C° 0.3 mm 1 mps 691 mmHg 72%
12:00 +24°C° 0.3 mm 1 mps 691 mmHg 67%
13:00 +25°C° 0.3 mm 1 mps 691 mmHg 62%
14:00 +25°C° 0.4 mm 1 mps 690 mmHg 62%
15:00 +25°C° 0.4 mm 1 mps 690 mmHg 63%
16:00 +25°C° 0.4 mm 1 mps 690 mmHg 63%
17:00 +21°C° 0.3 mm 0 mps 689 mmHg 71%
18:00 +19°C° 0.3 mm 0 mps 689 mmHg 79%
19:00 +18°C° 0.3 mm 0 mps 689 mmHg 86%
20:00 +17°C° 0 mm 0 mps 689 mmHg 87%
21:00 +16°C° 0 mm 0 mps 689 mmHg 89%
22:00 +18°C° 0 mm 1 mps 689 mmHg 90%
23:00 +16°C° 0 mm 1 mps 689 mmHg 90%

16 August, Sunday

Time Temperature Precipitation Wind Pressure Humidity
00:00 +16°C° 0 mm 1 mps 689 mmHg 90%
01:00 +15°C° 0 mm 0 mps 689 mmHg 90%
02:00 +14°C° 0 mm 0 mps 688 mmHg 91%
03:00 +15°C° 0 mm 1 mps 688 mmHg 91%
04:00 +15°C° 0 mm 1 mps 688 mmHg 91%
05:00 +15°C° 0 mm 0 mps 688 mmHg 89%
06:00 +16°C° 0 mm 0 mps 689 mmHg 86%
07:00 +17°C° 0 mm 0 mps 689 mmHg 84%
08:00 +20°C° 0 mm 0 mps 690 mmHg 75%
09:00 +22°C° 0 mm 0 mps 690 mmHg 66%
10:00 +26°C° 0 mm 1 mps 691 mmHg 58%
11:00 +27°C° 0.2 mm 1 mps 691 mmHg 57%
12:00 +27°C° 0.2 mm 1 mps 690 mmHg 56%
13:00 +28°C° 0.2 mm 1 mps 690 mmHg 55%
14:00 +27°C° 0.4 mm 1 mps 690 mmHg 59%
15:00 +27°C° 0.4 mm 1 mps 690 mmHg 62%
16:00 +26°C° 0.4 mm 1 mps 690 mmHg 66%
17:00 +24°C° 0.2 mm 1 mps 689 mmHg 72%
18:00 +22°C° 0.2 mm 1 mps 689 mmHg 79%
19:00 +21°C° 0.2 mm 1 mps 689 mmHg 86%
20:00 +20°C° 0 mm 1 mps 689 mmHg 86%
21:00 +19°C° 0 mm 1 mps 689 mmHg 87%
22:00 +19°C° 0 mm 1 mps 689 mmHg 87%
23:00 +18°C° 0 mm 1 mps 689 mmHg 87%

17 August, Monday

Time Temperature Precipitation Wind Pressure Humidity
00:00 +18°C° 0 mm 1 mps 688 mmHg 88%
01:00 +16°C° 0 mm 1 mps 688 mmHg 89%
02:00 +16°C° 0 mm 1 mps 688 mmHg 89%
03:00 +15°C° 0 mm 0 mps 688 mmHg 90%
04:00 +15°C° 0 mm 0 mps 688 mmHg 90%
05:00 +16°C° 0.2 mm 0 mps 688 mmHg 89%
06:00 +17°C° 0.2 mm 0 mps 688 mmHg 87%
07:00 +18°C° 0.2 mm 0 mps 688 mmHg 86%
08:00 +19°C° 0.5 mm 0 mps 688 mmHg 80%
09:00 +21°C° 0.5 mm 0 mps 689 mmHg 75%
10:00 +25°C° 0.5 mm 1 mps 689 mmHg 69%
11:00 +25°C° 0.8 mm 1 mps 689 mmHg 67%
12:00 +26°C° 0.8 mm 1 mps 688 mmHg 65%
13:00 +26°C° 0.8 mm 1 mps 688 mmHg 63%
14:00 +26°C° 0.4 mm 2 mps 688 mmHg 64%
15:00 +26°C° 0.4 mm 2 mps 687 mmHg 65%
16:00 +25°C° 0.4 mm 2 mps 687 mmHg 66%
17:00 +23°C° 0.1 mm 1 mps 687 mmHg 72%
18:00 +22°C° 0.1 mm 1 mps 686 mmHg 78%
19:00 +20°C° 0.1 mm 1 mps 686 mmHg 84%
20:00 +19°C° 0 mm 1 mps 686 mmHg 85%
21:00 +18°C° 0 mm 1 mps 686 mmHg 85%
22:00 +18°C° 0 mm 1 mps 687 mmHg 85%
23:00 +16°C° 0.2 mm 1 mps 686 mmHg 87%

18 August, Tuesday

Time Temperature Precipitation Wind Pressure Humidity
00:00 +16°C° 0.2 mm 1 mps 686 mmHg 89%
01:00 +15°C° 0.2 mm 1 mps 686 mmHg 91%
02:00 +15°C° 0.2 mm 1 mps 686 mmHg 91%
03:00 +15°C° 0.2 mm 1 mps 686 mmHg 91%
04:00 +15°C° 0.2 mm 1 mps 686 mmHg 92%
05:00 +15°C° 0.5 mm 1 mps 686 mmHg 93%
06:00 +15°C° 0.5 mm 1 mps 687 mmHg 94%
07:00 +15°C° 0.5 mm 1 mps 687 mmHg 94%
08:00 +15°C° 1.4 mm 1 mps 687 mmHg 95%
09:00 +16°C° 1.4 mm 1 mps 687 mmHg 95%
10:00 +16°C° 1.4 mm 1 mps 688 mmHg 95%
11:00 +18°C° 0.6 mm 1 mps 688 mmHg 88%
12:00 +20°C° 0.6 mm 1 mps 688 mmHg 80%
13:00 +21°C° 0.6 mm 1 mps 688 mmHg 73%
14:00 +21°C° 0 mm 1 mps 688 mmHg 69%
15:00 +22°C° 0 mm 1 mps 688 mmHg 66%
16:00 +23°C° 0 mm 1 mps 688 mmHg 62%
17:00 +21°C° 0.1 mm 1 mps 688 mmHg 71%
18:00 +17°C° 0.1 mm 0 mps 688 mmHg 81%
19:00 +15°C° 0.1 mm 0 mps 687 mmHg 90%
20:00 +14°C° 0 mm 0 mps 688 mmHg 91%
21:00 +14°C° 0 mm 0 mps 688 mmHg 91%
22:00 +13°C° 0 mm 0 mps 688 mmHg 91%
23:00 +14°C° 0 mm 1 mps 688 mmHg 91%
Show more